Theta_e
299 295 292 296 297 297 294 292 292 295 298 294 294 295 297 299 300 300 301 302 303 304 306 306 307 308 308 308 307 307 307 308 309 310 310 311 311 312 311 312 311 309 307 304
294 292 297 298 295 293 293 291 292 295 296 293 294 293 296 299 299 300 301 303 303 303 305 305 305 306 306 306 306 306 305 306 307 308 309 310 309 310 310 310 309 308 306 304
294 297 296 294 293 291 293 290 292 292 294 294 292 293 295 299 299 300 302 302 302 301 301 302 304 305 306 305 305 305 305 305 304 306 307 307 307 305 306 306 306 306 305 304
294 296 293 291 291 293 290 296 293 291 289 287 293 286 295 299 299 299 301 300 300 301 301 302 302 302 302 302 304 303 303 303 303 303 304 304 302 301 302 303 304 304 303 302
294 291 291 291 292 293 291 293 291 290 289 288 290 286 294 294 295 296 298 299 300 300 300 300 300 300 300 301 300 301 301 301 302 301 302 302 302 303 304 303 302 302 300 301
293 294 294 294 293 293 293 292 291 289 288 284 291 288 291 293 294 297 297 297 297 297 296 296 296 296 296 297 297 297 297 297 299 300 301 301 300 301 300 301 299 299 299 298
293 293 294 293 291 292 291 289 285 286 284 285 288 286 290 296 296 294 294 293 294 294 293 292 292 292 293 293 294 294 294 294 296 297 298 299 299 300 299 300 299 299 297 297
289 288 290 293 293 294 289 290 286 280 283 287 289 285 291 297 295 294 294 294 294 293 293 293 292 292 292 292 292 292 293 292 292 294 294 296 297 297 298 299 299 298 298 298
289 289 293 291 293 294 289 287 294 286 287 282 287 292 295 294 293 293 293 293 291 291 291 291 292 292 292 291 291 291 291 292 291 291 293 294 294 295 296 297 297 297 298 297
293 287 295 294 291 291 290 292 284 285 278 278 284 287 288 290 292 292 291 289 289 289 289 289 289 290 291 292 292 292 292 291 291 290 291 292 292 293 294 294 295 295 296 296
293 289 290 292 289 289 287 286 287 287 285 280 279 285 292 290 288 288 288 287 287 287 287 287 288 289 290 291 291 291 291 290 290 290 290 291 291 291 292 292 293 294 295 295
296 289 284 288 295 296 294 291 291 284 282 284 283 283 295 290 287 287 285 285 286 286 286 286 287 288 288 289 289 289 289 289 289 289 289 289 290 290 290 290 291 292 292 293
294 288 283 284 287 291 288 288 288 286 284 281 279 282 295 293 290 285 284 284 284 284 283 284 285 286 286 287 287 288 288 288 288 287 287 287 288 287 287 287 289 290 290 290
294 287 285 280 284 287 283 286 285 282 278 280 280 281 285 287 284 282 281 282 283 284 282 282 283 285 286 286 286 286 286 287 286 285 286 286 286 286 285 286 287 288 288 289
289 282 285 285 286 283 282 281 281 279 280 276 278 279 283 282 281 281 282 281 281 283 281 282 282 283 284 284 284 285 285 285 285 283 284 285 286 286 284 283 284 286 286 287
283 280 279 276 281 281 278 280 280 280 279 278 279 278 282 282 283 281 281 280 280 282 281 281 282 282 283 283 283 283 283 283 284 282 283 284 286 284 281 282 283 284 285 286
280 279 275 273 279 275 271 275 278 279 280 279 274 278 279 277 278 279 280 280 280 281 281 281 282 282 283 283 283 283 283 283 282 282 282 282 284 280 279 281 283 282 283 285
278 277 276 271 270 265 276 280 280 279 277 279 278 278 278 278 280 281 282 282 281 282 281 282 283 283 283 284 283 283 282 281 281 281 281 282 281 278 278 279 281 282 282 283
280 277 272 268 269 272 274 277 276 275 275 279 278 278 278 279 280 279 282 283 282 283 283 283 283 283 282 282 282 281 281 280 280 279 279 280 279 276 277 276 278 278 280 281
277 278 273 264 265 264 274 276 278 277 270 276 277 277 277 278 272 276 282 283 283 283 284 283 282 281 281 281 280 279 278 278 278 279 278 278 277 275 275 275 275 277 279 280
270 271 269 270 268 271 277 278 278 268 271 279 279 278 278 277 279 281 282 282 283 283 282 282 281 280 280 280 279 277 276 276 277 278 277 276 275 274 274 273 274 274 275 276
270 268 267 264 264 264 276 276 272 278 281 280 280 280 280 280 280 281 281 281 282 281 280 280 278 278 278 278 276 275 274 276 276 275 274 273 272 272 272 271 271 271 272 273
269 273 271 270 271 277 278 279 282 282 280 281 281 281 281 279 279 280 279 279 278 278 277 277 276 275 275 275 274 272 273 274 272 270 269 269 269 269 269 268 269 269 271 272
276 278 273 273 276 277 279 281 282 282 281 282 282 280 278 277 276 275 275 275 274 274 273 273 272 270 270 271 270 270 270 269 267 266 266 266 266 267 267 268 268 268 269 271
276 276 274 274 277 278 279 281 281 282 282 279 276 275 274 274 272 272 271 271 270 270 269 269 267 267 266 267 266 266 265 264 263 262 263 263 264 264 264 265 266 267 269 271
278 276 273 272 278 277 278 281 281 279 277 273 272 272 272 270 269 269 268 268 267 266 266 264 264 264 263 262 262 262 261 261 260 260 260 261 261 262 262 262 263 267 269 271
Wind_Speed
3 9 13 19 20 21 13 17 21 19 16 16 23 24 18 21 24 27 23 20 15 13 11 9 9 9 8 6 7 9 12 13 11 11 11 12 13 11 12 13 17 18 16 18
4 13 16 11 8 10 16 22 22 19 14 6 19 26 24 24 21 21 19 15 11 11 9 10 9 7 6 6 5 6 8 9 11 9 9 10 9 11 12 12 14 15 16 17
18 10 1 12 14 14 18 16 19 22 15 14 13 15 4 8 8 11 10 8 7 8 9 12 12 15 16 18 16 10 8 8 9 12 9 9 9 8 10 12 12 14 17 16
11 5 7 3 8 15 19 14 16 15 9 8 7 11 13 16 16 9 10 15 14 14 12 13 16 18 17 16 15 14 11 7 7 9 10 13 11 12 10 10 10 11 17 18
4 3 3 7 11 8 7 4 5 4 8 9 5 8 3 4 4 7 14 13 16 16 17 20 18 16 18 17 17 15 13 10 6 5 10 9 13 11 9 9 11 14 13 16
13 1 4 5 4 6 1 4 6 2 4 10 12 9 2 1 5 4 10 15 22 22 21 20 19 19 20 19 18 18 18 18 16 9 8 12 14 12 11 9 8 8 10 11
7 6 3 3 5 3 5 7 5 6 6 8 7 3 7 9 4 14 17 17 16 15 16 20 21 21 21 21 20 17 21 22 20 15 11 11 12 12 14 13 9 11 10 10
4 7 6 6 8 10 7 7 4 6 8 15 5 9 6 1 16 18 17 17 19 20 19 19 18 16 18 20 20 19 19 18 18 17 16 12 12 9 10 11 11 10 10 11
5 10 2 6 3 5 6 9 12 10 9 8 11 14 10 10 11 12 13 13 16 16 16 16 18 18 18 19 20 20 19 19 19 17 15 15 12 12 12 15 12 10 12 10
2 11 7 2 1 3 5 1 4 3 5 11 15 11 9 10 3 7 11 13 14 14 15 15 15 16 16 16 15 16 16 17 17 17 15 13 15 15 13 13 14 14 14 14
4 5 13 0 8 11 3 5 2 2 4 6 8 7 5 8 5 6 6 9 12 13 14 15 15 16 15 15 16 16 16 16 16 16 16 16 15 15 14 13 14 14 14 14
5 3 7 13 17 16 13 17 16 12 11 10 11 16 2 11 10 6 5 6 7 8 10 11 12 13 14 14 15 15 15 16 16 16 15 14 13 15 15 15 15 14 15 14
3 4 6 6 5 3 2 4 5 4 3 15 17 14 3 11 7 6 3 4 5 4 8 10 11 11 12 13 13 14 15 14 15 16 15 15 14 15 15 15 14 13 13 14
2 3 8 12 17 8 9 13 5 2 5 7 10 12 19 22 9 4 3 5 4 5 8 9 10 10 10 12 13 13 14 14 14 16 15 15 15 14 14 14 13 13 12 12
2 10 13 15 16 11 10 10 14 16 15 10 14 22 25 10 9 5 6 8 8 5 7 10 11 10 10 11 12 13 14 14 14 14 14 14 13 14 15 14 14 14 12 10
0 4 2 6 8 14 16 19 22 21 22 24 26 27 6 4 10 13 13 14 12 8 10 11 10 12 11 10 11 11 12 12 12 13 13 13 12 13 16 15 15 14 14 12
4 4 4 15 13 11 12 19 21 21 23 19 17 5 3 3 9 14 17 15 16 13 13 14 14 13 12 12 11 12 13 13 14 14 13 13 10 12 14 15 14 15 16 14
12 9 6 9 3 16 9 4 7 9 1 5 5 5 3 5 12 15 14 16 19 17 15 16 14 14 13 13 13 13 11 12 12 11 11 13 12 15 16 15 14 13 13 14
17 12 6 6 10 12 17 7 5 5 5 10 7 7 4 11 14 17 13 14 18 18 16 13 13 14 16 16 14 12 13 13 13 13 12 12 10 13 16 17 18 17 15 15
6 12 9 4 7 9 4 5 4 5 9 9 7 7 12 10 12 14 16 16 16 18 15 14 15 16 15 14 12 13 14 13 14 13 13 13 11 12 14 16 17 16 15 17
3 4 15 12 10 8 5 5 5 6 5 7 8 12 14 14 14 18 18 17 17 16 16 15 16 15 16 14 13 16 17 17 14 12 13 13 14 15 14 16 15 16 17 17
6 6 5 2 4 11 4 7 7 2 7 10 14 15 14 16 16 18 18 18 16 15 17 17 15 16 16 16 14 17 18 17 16 14 15 16 15 14 14 17 17 17 16 17
8 10 5 10 7 1 6 6 13 17 17 17 16 15 16 16 17 16 14 13 14 15 14 14 14 17 18 16 14 18 19 17 17 17 18 17 18 17 16 17 17 15 15 14
13 14 10 12 17 20 21 19 19 19 15 16 14 10 5 10 10 12 12 13 14 13 14 14 16 18 20 17 18 18 19 19 19 20 20 18 18 18 16 14 13 14 14 14
13 4 9 14 20 19 21 19 20 18 13 3 2 3 7 8 10 12 13 14 14 15 14 14 15 18 21 20 20 18 18 19 20 20 19 19 16 17 16 15 14 14 15 16
13 18 12 15 21 17 20 17 9 7 4 1 4 6 5 7 11 12 13 13 14 15 15 15 17 18 19 19 20 19 18 18 19 19 15 14 14 14 14 14 15 25 32 35
Wind_Direction
169 215 211 225 227 249 291 274 276 278 284 293 285 294 297 286 276 273 281 283 295 290 321 342 340 329 322 287 250 232 222 218 208 209 213 223 226 228 229 224 215 209 203 200
180 237 237 261 286 268 267 273 278 279 275 286 294 298 293 272 276 272 280 293 294 309 352 24 24 31 356 337 329 288 261 242 221 217 216 225 220 231 233 228 227 219 212 204
243 262 246 216 241 261 252 261 274 283 306 275 297 284 283 305 281 269 294 297 338 18 46 66 55 34 29 24 10 357 322 272 238 231 225 219 232 240 226 223 218 213 209 203
257 301 250 224 245 243 275 264 268 278 292 285 2 292 303 281 285 355 28 41 55 67 81 63 32 32 35 29 16 3 349 315 265 237 244 243 240 237 225 229 225 216 214 211
274 174 171 214 236 208 264 8 293 278 268 301 233 260 324 281 309 70 61 56 46 39 40 27 26 36 38 30 20 14 9 6 324 264 244 250 251 264 266 247 231 211 209 215
270 322 245 248 191 198 157 262 262 229 251 257 255 221 59 140 63 65 65 53 35 31 31 35 27 25 30 28 27 22 17 20 10 342 285 269 267 268 264 247 241 229 218 214
310 245 241 237 244 163 229 281 302 259 216 268 109 234 289 273 348 54 67 60 49 44 33 25 21 20 20 21 21 20 24 22 14 4 336 297 281 275 269 265 250 238 225 219
256 288 191 180 233 246 176 203 214 269 279 292 354 257 246 166 72 52 46 38 36 31 31 24 19 16 14 17 16 17 23 24 22 12 358 333 317 295 282 267 262 253 237 230
231 257 266 224 221 202 153 203 228 249 267 272 249 253 229 96 76 60 43 33 30 27 19 12 10 10 10 11 15 14 12 12 12 9 4 4 350 324 301 293 273 257 250 247
260 284 214 288 221 247 251 89 187 217 244 256 267 258 256 184 268 55 26 23 20 20 22 20 14 9 10 9 7 10 13 7 5 5 4 1 3 355 329 307 291 273 261 248
250 234 271 302 211 234 168 197 182 175 196 251 269 246 89 119 58 22 40 28 26 24 18 10 8 5 5 3 1 0 1 1 1 359 359 0 358 360 355 338 312 293 279 262
202 194 247 239 270 257 255 245 244 241 217 215 243 265 51 117 84 63 60 37 11 9 9 6 357 355 355 357 354 352 353 352 354 352 345 346 352 352 353 353 341 317 292 274
56 251 257 267 188 79 268 311 312 312 319 244 263 260 20 309 350 65 35 359 353 359 11 5 354 350 354 346 345 342 345 345 343 343 340 338 344 347 346 344 340 334 309 283
38 279 258 267 283 340 263 258 237 253 256 286 252 287 297 305 351 57 347 331 291 320 357 351 346 338 340 337 336 337 336 341 341 338 339 337 336 338 333 327 328 328 320 299
236 259 265 271 282 293 261 257 268 268 266 254 281 279 279 329 328 334 315 337 330 306 329 333 331 325 321 322 324 326 326 333 335 333 331 332 329 330 328 326 327 324 322 310
308 267 243 267 253 264 280 272 263 265 264 262 264 270 10 334 319 323 332 338 333 303 318 324 318 308 305 306 311 313 311 314 324 318 321 321 320 330 328 322 322 324 319 316
252 247 267 267 289 316 273 250 263 268 269 280 276 317 123 356 331 322 317 318 318 303 314 327 328 317 298 294 300 297 302 310 308 311 314 314 314 321 318 315 316 320 320 318
242 229 244 273 334 252 285 341 264 271 353 168 135 156 186 313 314 305 301 292 297 289 298 314 316 313 303 292 288 288 286 288 288 286 291 298 311 317 318 315 309 309 307 305
233 248 245 248 241 301 297 233 220 246 276 205 188 192 236 299 301 287 295 280 282 282 284 297 304 306 302 296 299 287 282 285 282 281 283 291 302 308 308 307 309 311 306 303
215 228 217 160 239 262 320 146 115 141 275 187 190 224 296 306 291 294 312 306 288 284 275 289 302 304 297 299 304 291 284 283 276 282 286 291 289 291 291 297 298 299 296 295
146 199 221 226 249 271 258 152 131 251 309 160 208 264 280 285 275 289 297 292 285 276 287 296 300 298 294 301 303 293 294 288 292 287 283 283 290 292 289 292 292 293 291 289
215 201 198 148 245 266 166 128 215 260 297 295 291 289 290 289 285 286 288 292 295 291 298 302 299 294 296 301 301 292 288 298 297 290 285 284 284 285 287 287 288 287 286 284
250 218 238 217 228 230 180 258 269 286 289 292 290 288 293 292 292 300 300 301 299 302 302 303 301 299 298 302 304 297 297 305 303 296 290 287 286 284 281 279 281 284 280 274
256 251 245 265 252 259 266 269 273 274 272 276 281 301 298 289 305 298 300 302 304 305 305 309 306 299 297 303 302 298 304 306 301 294 292 292 289 288 284 279 276 274 273 272
244 220 242 261 265 272 265 265 262 272 277 274 328 317 314 313 307 306 305 305 307 309 310 308 303 296 295 301 301 306 306 303 296 294 295 293 290 287 285 276 274 271 269 271
240 244 250 256 264 257 269 276 294 256 229 313 320 310 313 315 307 311 304 308 311 311 312 300 297 296 295 299 300 299 295 295 294 293 293 290 291 287 283 282 280 270 275 276